Zurück zum Katalog

STARLINK-31610

AktivKommunikationVLEO
NORAD 59473·PAYLOAD·🇺🇸 United States

Gestartet Apr 10, 2024 von Cape Canaveral Space Force Station

Loading…

Nächste Überflüge (nächste 24 Stunden)

TLE

AktuellSource: CelesTrak SupGP

Epoche: Sep 15, 2026, 03:17 UTC

1 59473C 24068U   26258.13729167 -.00021442  00000+0 -77664-3 0  2582
2 59473  43.0016  44.4373 0001306 268.5436 259.6552 15.27588746    11

Verfolge STARLINK-31610 in Echtzeit mit AllMySat

Download on the App Store